RH
43 40 38 37 36 37 37 38 40 41 43 45 39 37 36 41 37 34 31 22 18 10 8 37 75 74 80 74 70 65 62 56 58 57 65 80 88 96 85 83 100 100 100 99 100 100 85 96 97 82 84 99 100 99
48 46 44 44 42 46 50 50 52 48 45 45 43 46 48 45 36 30 20 14 11 14 36 74 72 74 70 71 66 61 53 47 60 76 85 98 89 88 83 73 74 95 98 100 100 100 100 100 89 74 76 100 98 89
49 48 48 48 52 54 51 52 49 48 51 53 59 62 45 35 22 14 6 23 48 69 75 67 65 64 63 51 42 38 50 62 77 100 100 100 100 94 82 76 88 90 84 80 82 77 92 95 88 83 46 66 100 100
66 64 58 54 51 50 52 46 43 42 41 38 52 60 44 16 8 12 38 95 99 78 57 40 39 37 36 64 92 100 100 99 97 99 100 99 94 81 70 62 63 66 88 98 67 70 72 80 96 94 76 71 100 100
59 57 54 45 41 30 39 44 40 38 45 45 39 27 12 7 23 59 98 99 78 59 32 26 19 39 92 88 100 100 92 71 75 70 77 79 70 67 68 91 98 100 100 100 90 81 91 89 100 99 81 98 100 100
52 32 29 22 25 42 50 47 54 48 20 20 13 6 15 47 87 99 83 81 51 35 20 17 49 63 78 94 98 92 84 82 87 82 66 54 54 73 74 66 75 92 96 91 100 100 100 100 100 100 100 100 100 100
10 7 12 20 23 42 57 51 36 12 12 10 8 31 70 97 90 68 58 47 34 44 41 47 59 62 71 72 68 62 63 66 68 71 84 100 100 100 91 99 100 100 100 100 100 100 98 98 100 100 100 100 100 96
8 13 19 21 44 66 56 22 10 11 10 16 50 80 96 76 61 54 38 27 47 60 67 60 55 71 80 88 85 94 100 100 100 100 100 100 99 99 100 100 100 100 100 100 100 100 100 100 100 100 100 95 61 32
22 36 49 62 68 53 19 10 15 14 25 67 91 92 75 60 47 41 28 34 54 66 70 91 86 67 85 100 100 98 100 100 89 98 97 96 100 93 89 98 100 100 100 100 100 100 100 100 99 84 56 37 31 27
71 76 74 58 24 13 16 25 23 38 78 94 98 85 66 55 44 45 38 47 59 97 100 88 87 99 100 100 100 98 94 90 95 95 100 100 94 100 100 100 99 93 94 100 100 99 94 82 63 49 45 41 35 34
56 46 29 14 21 34 40 36 50 88 98 99 98 82 67 52 54 42 50 53 78 92 100 100 98 98 100 100 97 94 94 98 100 100 100 98 100 100 99 100 100 100 98 98 92 78 63 57 56 55 52 48 46 41
24 37 51 61 68 58 54 62 88 100 100 98 86 76 72 63 43 58 60 56 71 100 84 92 100 100 100 98 96 93 100 99 100 100 100 100 100 100 100 100 100 99 92 78 66 59 57 56 54 52 52 54 52 42
98 100 100 100 86 76 75 87 100 100 100 96 87 84 79 57 47 68 58 64 83 87 89 91 100 100 100 98 91 100 100 100 100 100 95 100 100 100 99 100 99 87 78 74 69 66 61 59 57 57 57 58 59 48
100 100 100 100 99 92 91 98 100 100 100 100 94 89 70 40 51 58 76 94 85 85 82 95 96 98 97 100 98 100 100 100 99 97 99 100 100 98 98 98 90 77 64 56 58 65 64 59 60 61 61 63 64 55
100 100 100 100 100 100 100 100 100 100 100 99 95 100 38 53 66 69 89 94 78 74 86 78 90 100 100 100 100 100 100 100 100 98 100 100 100 97 97 91 68 40 34 46 56 67 74 74 74 72 71 70 70 63
97 100 100 100 100 100 100 100 100 100 100 91 100 72 39 66 69 79 94 91 68 74 80 81 99 96 98 100 100 100 100 100 100 100 100 100 98 98 96 77 53 41 42 51 64 77 78 78 82 84 79 77 73 72
91 100 100 100 100 100 99 100 100 98 94 100 73 33 50 60 57 68 70 68 58 66 75 98 91 95 100 95 100 100 100 100 100 100 100 100 100 99 96 87 71 57 58 72 81 79 88 84 84 86 84 85 79 77
25 100 100 100 99 95 100 100 98 98 100 48 37 45 47 46 44 51 68 70 50 53 64 90 99 100 99 97 100 100 100 100 100 100 100 100 100 100 100 98 87 69 74 84 87 91 96 96 90 88 91 89 82 80
38 100 100 100 100 100 100 100 100 86 32 39 49 46 34 31 43 72 88 53 38 41 63 90 100 100 98 95 100 100 100 100 100 100 100 100 100 100 100 100 96 86 64 50 79 89 98 100 94 92 93 92 86 84
97 100 100 100 100 100 100 100 91 37 43 50 36 21 22 40 76 87 70 54 55 66 96 96 99 99 100 100 100 100 100 100 100 100 100 100 100 100 100 100 99 95 58 56 84 95 100 100 98 95 98 96 89 86
100 100 98 100 100 100 100 90 37 47 51 38 22 28 56 74 80 76 65 58 81 98 96 100 100 100 100 100 100 97 100 100 100 100 100 100 100 100 100 100 99 94 83 91 98 100 100 100 100 100 100 99 91 91
100 100 100 100 100 100 74 38 52 33 18 22 43 65 67 71 79 78 73 78 91 94 97 99 100 100 100 100 100 100 100 100 99 98 100 100 100 100 100 100 98 96 98 99 100 100 100 100 100 100 100 100 93 93
100 100 100 100 88 39 51 40 25 45 61 70 60 57 58 69 71 67 72 78 87 100 100 100 100 100 100 100 99 99 98 99 96 99 100 100 100 100 100 99 99 100 100 100 100 100 100 100 100 100 100 99 91 89
99 100 61 43 52 39 37 60 68 74 81 69 58 59 63 62 63 68 77 93 100 100 100 100 100 100 100 98 97 98 97 98 96 98 100 100 100 100 100 100 100 100 100 100 100 100 100 100 100 100 100 96 94 80
44 53 46 50 60 79 78 85 96 98 90 72 55 53 58 60 76 95 100 100 100 100 100 100 100 100 99 97 94 90 92 99 100 100 100 100 100 100 100 100 100 100 100 100 100 100 100 100 100 100 100 97 96 64
76 91 99 98 98 99 100 100 100 100 100 98 83 74 77 95 100 100 100 100 100 100 100 99 98 97 97 95 94 90 99 100 100 100 100 100 100 100 100 100 99 99 100 100 100 100 100 100 100 100 99 99 79 54
100 100 100 100 100 100 100 100 100 100 96 96 93 99 100 100 100 100 100 99 98 95 96 95 100 98 92 92 94 92 94 99 100 100 100 100 100 100 100 100 100 100 100 100 100 100 100 100 100 100 100 89 66 43
96 92 95 100 100 100 100 100 100 100 100 100 100 100 100 100 100 96 96 94 94 95 96 100 99 94 90 92 97 98 100 100 100 100 100 100 100 100 100 100 100 100 100 100 100 100 100 100 100 100 95 75 53 29
89 90 95 100 100 100 100 100 100 100 100 100 100 100 100 100 100 100 100 100 100 100 100 100 99 100 100 100 100 97 100 100 100 100 100 100 100 100 100 100 100 100 100 100 100 99 100 100 100 97 82 62 34 23
94 94 98 99 100 100 100 100 100 100 100 100 100 100 100 100 97 94 92 89 86 83 82 85 87 92 97 100 100 100 100 100 100 100 100 100 100 100 100 100 100 100 100 100 99 100 100 100 98 84 62 36 25 20
100 100 100 100 100 100 100 100 100 96 91 92 98 100 100 98 99 100 100 100 100 99 98 97 98 99 100 100 100 100 100 100 100 100 100 100 100 100 100 100 100 100 100 100 100 100 100 97 81 60 37 27 22 18
98 99 99 100 100 100 100 100 100 100 100 100 100 100 100 100 100 100 100 100 97 98 99 98 99 98 97 98 100 100 100 100 100 100 100 100 100 100 100 100 100 100 100 100 100 100 94 77 54 36 29 23 19 16
100 100 100 100 100 100 100 100 100 100 100 100 100 100 100 100 100 100 100 100 97 95 94 93 94 96 100 100 100 100 100 100 100 100 100 100 100 100 100 100 100 100 100 100 100 86 65 45 35 29 24 20 17 15
Wind_Speed
64 64 64 65 66 69 70 71 71 74 77 80 80 80 77 75 78 79 80 79 77 73 61 42 37 37 39 40 43 43 45 45 47 47 47 43 43 39 43 41 39 41 42 35 31 36 36 32 35 39 44 41 37 35
68 68 68 68 71 71 72 75 78 81 83 81 77 75 77 79 79 80 75 62 56 54 45 37 35 39 41 42 49 45 44 44 44 44 42 43 44 44 42 43 37 36 33 36 31 32 35 37 39 41 44 42 39 40
67 67 69 71 74 77 81 84 84 82 77 75 77 77 78 80 76 67 56 43 42 43 41 40 39 39 41 38 49 48 41 39 34 29 31 34 35 32 34 31 29 29 33 36 36 36 42 39 40 43 45 46 45 42
72 73 77 79 80 81 82 81 78 77 77 76 77 77 77 67 57 45 38 36 40 45 45 34 40 46 43 30 23 20 23 21 25 28 29 28 29 29 28 29 31 31 33 32 35 38 42 42 45 41 41 44 44 41
77 79 81 81 81 78 77 77 76 74 72 73 72 69 59 45 36 34 33 34 39 42 45 47 40 23 16 21 20 24 25 25 26 28 27 27 27 32 33 33 29 31 35 37 39 40 42 42 43 37 36 41 34 26
85 84 82 80 78 76 77 76 71 74 72 65 60 48 35 31 31 31 29 35 38 46 36 9 5 8 12 16 20 22 25 26 26 27 28 28 26 30 34 35 33 36 39 40 41 44 44 35 30 30 35 26 17 16
85 83 81 78 76 76 75 73 74 65 60 52 36 28 27 28 29 30 29 36 36 17 13 5 6 10 11 15 17 20 22 24 26 27 26 28 30 34 38 37 39 41 41 38 32 19 16 20 26 24 12 11 11 14
83 82 78 76 74 75 75 68 58 52 43 30 26 25 24 25 27 26 35 27 13 14 17 17 18 14 11 11 13 18 19 21 23 24 26 28 31 34 32 32 29 23 17 12 9 13 16 10 4 4 6 10 14 17
79 78 75 73 73 74 64 51 43 34 27 24 22 21 21 24 23 31 26 11 9 14 15 12 12 12 12 12 13 15 18 23 25 26 26 28 29 28 25 20 11 7 6 6 7 6 3 3 5 9 11 13 16 19
79 76 76 74 66 53 43 37 30 24 22 21 20 20 20 23 23 31 12 9 11 10 10 12 15 13 14 17 19 24 25 27 22 23 25 22 16 15 12 11 12 14 12 8 8 13 12 10 10 11 13 15 18 22
77 72 64 53 44 35 32 27 23 20 21 19 18 20 22 23 28 12 9 11 6 8 9 11 11 11 16 23 25 25 28 27 25 20 13 7 6 5 10 14 16 16 16 16 13 12 12 12 13 15 17 19 21 23
52 44 39 35 30 28 26 24 20 18 19 18 18 20 23 23 17 9 8 7 9 8 10 8 10 13 19 22 24 24 26 22 17 10 4 1 3 6 13 16 17 16 15 14 14 15 16 17 18 19 20 21 23 26
34 34 33 30 28 27 25 22 18 19 18 18 19 22 19 22 12 10 8 9 10 11 10 8 10 15 20 23 24 25 22 18 12 3 2 6 8 11 13 14 14 13 13 13 15 18 19 20 22 24 24 25 26 29
33 32 30 29 29 28 25 21 19 19 20 19 20 20 24 12 12 10 11 11 10 10 9 10 14 19 20 23 25 22 20 13 5 3 6 6 8 11 12 11 10 10 11 13 16 18 22 24 27 28 30 31 31 32
29 31 29 29 29 27 26 21 20 19 19 19 20 21 11 15 13 12 12 12 12 11 10 13 15 16 18 22 24 20 18 9 2 2 3 6 8 9 8 7 6 8 11 13 16 19 21 25 28 32 35 37 36 36
30 30 31 28 27 26 25 20 20 19 19 19 17 16 16 13 14 10 8 12 13 10 12 14 14 17 17 22 24 20 14 6 4 4 5 8 6 5 3 2 5 9 11 14 17 20 23 26 29 33 36 40 40 39
36 32 27 26 25 25 22 20 19 19 17 18 15 19 20 16 14 9 8 10 13 11 13 15 15 17 19 21 23 18 11 9 7 6 8 10 8 6 3 4 7 10 13 17 19 21 24 28 30 33 37 41 43 43
39 30 27 26 25 21 18 19 18 14 16 12 18 18 15 13 13 11 11 12 14 15 15 17 18 17 22 21 21 19 12 11 12 9 11 14 12 10 8 8 9 13 16 19 22 24 27 29 31 34 37 41 45 45
32 28 27 24 20 18 18 16 13 11 12 16 16 13 9 10 10 11 10 12 17 19 19 19 21 21 24 22 21 21 16 13 16 15 14 16 16 14 14 13 13 15 19 22 25 27 29 31 32 34 38 41 46 47
29 27 25 22 19 20 16 13 11 13 14 15 10 8 8 10 10 9 9 11 14 15 18 21 23 23 24 26 24 23 19 18 18 18 16 16 17 18 17 17 17 18 21 24 27 29 31 33 34 36 39 42 47 49
28 27 24 22 19 16 14 10 14 14 14 10 10 9 9 10 9 10 12 12 12 17 20 22 22 26 28 25 21 19 18 18 19 18 19 18 17 19 18 18 19 20 23 27 30 32 33 35 35 37 40 42 47 50
23 23 21 18 16 13 11 14 12 9 7 9 11 9 9 9 10 10 10 13 16 20 22 24 25 23 21 19 18 17 17 17 16 15 16 16 18 18 18 19 21 24 28 31 33 34 35 36 36 37 41 43 48 50
20 18 16 13 11 13 13 10 7 7 7 8 8 9 10 9 10 11 14 18 21 23 23 21 19 18 17 16 16 16 16 15 13 13 14 17 19 20 21 23 26 27 29 32 35 36 37 38 36 38 41 44 48 50
15 10 13 15 13 11 7 6 7 8 7 7 6 7 9 12 13 16 19 21 21 18 17 15 13 13 13 13 14 14 13 14 14 14 15 18 20 22 24 26 29 31 31 33 36 37 38 38 37 40 42 45 48 50
18 15 12 10 9 7 6 6 6 5 6 5 6 6 8 14 17 19 19 17 15 15 15 13 13 13 13 13 13 13 13 15 16 16 19 21 23 26 27 28 30 33 34 37 38 38 38 39 38 41 43 46 48 50
10 8 7 5 5 5 5 4 4 5 5 5 6 10 15 16 15 13 13 13 13 15 14 13 13 14 14 14 14 12 12 14 17 19 22 24 26 27 28 30 33 35 37 39 39 38 39 38 39 41 44 46 48 52
5 6 8 9 8 6 2 3 4 5 5 8 12 12 11 11 11 12 13 13 14 15 14 15 16 15 15 15 15 13 13 15 18 20 23 25 27 30 32 34 36 38 39 39 38 38 38 38 40 42 45 46 50 54
10 12 10 7 3 2 4 5 6 8 10 9 9 10 11 11 11 12 13 13 14 15 16 16 14 14 15 16 16 16 16 17 19 21 23 26 29 32 34 36 37 38 38 36 38 38 39 39 41 43 45 48 52 56
10 6 4 2 3 6 8 9 9 8 8 9 10 9 9 10 10 11 11 12 13 13 14 15 16 16 17 17 17 17 16 16 18 22 25 28 30 33 36 35 36 35 35 36 36 39 38 40 42 44 47 51 54 57
3 4 5 7 8 9 10 10 8 8 8 8 7 9 11 12 13 14 14 15 15 16 16 16 17 18 18 18 17 16 16 17 21 25 28 31 34 35 35 34 34 35 35 36 38 39 40 42 43 45 49 53 55 57
8 8 8 9 9 10 9 9 9 8 9 11 12 14 15 17 18 18 18 19 20 20 20 21 21 22 21 20 20 19 20 22 25 29 32 34 34 33 33 32 34 34 35 38 39 40 41 42 45 48 52 54 56 57
9 9 10 11 12 12 12 12 12 13 15 17 18 20 20 21 20 21 22 21 20 20 21 22 22 22 21 21 20 22 24 26 28 29 30 30 30 30 31 32 33 36 38 40 41 41 42 45 48 51 54 55 56 54
10 11 12 12 13 14 15 16 16 18 20 21 21 23 23 24 23 22 22 21 22 23 23 24 24 24 23 22 22 22 23 25 26 28 30 31 31 32 34 36 38 39 39 40 41 44 46 49 51 53 55 55 54 50
Wind_Direction
299 298 299 300 300 299 300 300 301 300 301 304 305 305 306 304 303 303 304 305 305 302 304 305 298 298 290 288 290 291 287 287 285 283 282 282 275 273 274 273 273 277 286 287 292 298 302 297 300 303 302 306 307 302
297 297 296 297 299 300 300 300 302 303 305 304 304 305 305 304 305 304 305 301 301 302 305 300 300 295 291 288 290 289 289 287 284 284 286 285 284 283 286 283 282 284 291 286 289 296 302 297 296 298 294 301 299 296
294 294 296 298 299 301 301 302 302 304 304 304 302 303 303 306 306 303 300 300 299 297 296 304 299 292 290 291 291 289 286 285 290 292 294 293 291 295 295 295 288 287 288 288 284 286 294 297 298 296 289 295 305 302
295 296 298 299 301 301 300 301 302 302 303 303 304 303 304 302 300 298 302 299 295 298 303 304 299 292 292 287 291 308 298 301 302 297 287 289 295 300 296 289 286 292 291 289 282 285 286 287 296 292 286 293 305 304
297 298 299 300 299 300 299 301 302 303 305 305 303 301 300 298 297 298 298 296 300 301 304 303 299 296 269 309 300 296 293 291 290 287 289 289 289 288 289 290 297 291 289 288 284 282 288 288 290 288 291 298 303 303
297 296 296 298 298 298 300 301 302 305 303 299 299 300 296 297 295 296 301 299 300 304 308 328 12 344 313 301 302 296 288 293 295 295 296 296 295 292 297 299 300 294 290 289 289 289 288 283 287 291 296 298 306 303
293 294 294 294 295 296 298 300 304 302 298 297 298 295 295 293 298 303 303 303 304 304 331 8 331 333 299 297 295 300 299 299 299 300 306 307 307 301 299 302 296 294 294 294 292 288 288 288 292 293 301 301 296 325
290 291 291 292 293 295 299 302 299 296 296 294 292 292 293 300 303 303 310 303 287 313 317 329 331 332 321 317 309 313 312 311 311 310 310 309 310 312 309 301 299 300 303 306 305 300 297 301 330 319 308 335 332 324
287 288 289 291 293 299 300 294 291 292 288 285 287 292 299 302 301 314 307 279 288 311 330 345 330 342 342 337 329 325 324 321 314 307 308 312 315 318 320 314 298 309 331 34 55 56 56 62 32 7 347 334 327 325
286 287 290 294 297 294 289 286 285 283 280 282 288 294 300 302 303 312 272 258 293 312 316 303 324 332 334 334 331 324 326 328 324 314 313 321 328 342 12 58 81 85 79 90 88 52 38 20 3 349 338 333 332 333
283 284 286 285 282 280 278 276 274 273 275 281 288 293 300 299 307 279 245 270 261 283 301 301 308 320 331 334 330 326 326 326 325 328 332 333 5 37 70 84 91 88 76 60 46 34 20 8 357 349 342 337 333 333
278 275 271 269 269 268 268 267 268 265 268 283 288 295 299 300 291 237 258 254 250 305 315 297 311 333 334 333 334 331 330 332 339 349 351 79 123 130 106 88 77 69 61 52 42 32 21 12 4 355 347 343 340 340
270 266 265 262 261 262 263 264 261 258 268 281 288 300 301 302 222 231 258 241 270 307 309 313 327 334 330 333 338 339 342 343 346 359 128 148 164 125 97 86 76 70 60 44 33 24 16 10 5 1 355 348 345 344
260 259 259 259 256 256 259 260 256 259 267 277 288 296 309 260 217 238 255 254 270 302 301 316 325 330 332 334 340 342 349 351 5 100 133 168 160 117 102 90 78 59 41 26 19 12 10 9 5 1 359 354 349 346
255 251 250 251 250 251 253 254 253 257 266 276 289 302 281 206 231 240 262 262 270 300 308 316 321 323 327 333 343 345 349 345 353 132 178 190 154 124 109 89 59 28 15 6 2 358 355 354 354 357 357 355 350 347
243 240 240 241 243 242 245 245 247 255 267 281 296 293 209 224 233 240 258 260 270 288 307 310 317 318 323 334 340 341 340 320 277 258 225 209 181 152 135 61 10 2 353 350 349 349 347 344 345 349 350 351 349 347
235 231 231 233 234 234 240 238 246 260 274 290 273 207 213 234 236 247 278 276 261 275 295 306 312 314 318 330 338 332 325 305 285 265 252 236 216 213 239 298 329 333 335 338 337 339 343 342 343 343 344 346 347 345
225 217 218 219 223 233 233 232 250 268 292 250 197 208 226 237 243 264 287 278 253 266 287 297 300 309 309 319 330 321 310 290 274 258 251 244 239 240 258 282 305 317 325 326 328 334 338 339 339 340 341 343 344 343
208 200 206 213 222 225 226 235 251 274 207 194 209 228 244 248 255 267 271 265 250 264 283 293 296 298 302 315 318 309 298 280 280 262 251 251 251 255 264 278 294 307 315 318 322 327 331 334 336 337 337 339 342 342
185 189 197 205 210 212 221 224 258 197 202 212 221 248 250 248 259 259 247 246 257 281 288 290 296 300 302 305 304 297 289 285 280 270 256 252 256 261 270 280 292 303 311 314 317 323 328 332 332 333 335 336 340 340
176 182 186 193 197 206 207 229 187 198 207 222 256 251 236 237 238 243 248 261 279 286 289 297 299 301 299 299 292 288 284 286 279 260 248 246 254 265 274 282 293 301 306 309 316 323 326 330 329 331 334 336 338 338
165 172 175 181 191 207 203 182 190 198 226 235 247 247 234 241 240 243 251 275 282 294 301 301 303 302 301 297 290 288 287 291 275 260 256 251 260 269 276 287 294 299 306 314 318 322 326 328 327 331 333 335 337 337
151 156 162 183 198 173 174 183 205 223 223 246 248 228 232 239 244 261 286 293 298 303 305 306 305 302 299 294 292 289 289 287 277 267 257 257 263 270 277 285 292 301 310 315 318 321 324 325 325 330 333 335 335 336
144 164 156 149 150 162 181 198 222 239 239 236 221 213 233 248 266 284 293 296 301 306 309 310 307 308 300 294 290 287 281 276 269 262 258 259 265 272 279 287 295 302 308 317 320 321 322 323 323 329 333 334 334 335
128 133 135 139 157 184 213 243 236 220 215 198 210 235 258 277 288 292 292 294 299 310 315 313 312 312 311 309 305 299 294 284 270 261 259 263 269 276 282 288 295 302 314 317 318 319 321 321 324 329 332 332 333 334
119 127 145 165 186 181 170 168 188 201 201 219 252 271 281 287 287 288 288 293 304 312 312 312 308 306 307 305 299 293 289 281 274 268 266 267 272 276 283 290 298 308 313 314 317 318 319 322 326 329 331 331 333 334
150 159 157 143 136 138 163 233 237 245 262 279 282 285 293 293 291 291 295 298 301 300 297 300 305 311 313 310 303 292 282 276 273 272 270 271 276 283 288 295 305 308 309 314 316 318 321 324 327 329 330 331 333 333
153 149 149 155 164 228 285 277 269 275 284 287 291 302 303 304 304 301 303 301 301 297 297 298 301 301 301 301 296 290 286 284 281 280 280 282 286 291 299 304 304 305 311 313 318 320 322 326 327 328 329 331 332 333
162 164 178 215 280 304 301 298 298 298 297 298 298 304 311 317 320 314 309 306 305 303 303 302 304 303 303 302 299 299 299 291 287 285 287 291 295 296 300 301 306 310 313 318 318 321 325 325 326 327 329 331 331 333
234 236 255 272 285 291 298 303 299 294 294 294 300 308 312 314 316 316 315 313 312 309 307 307 307 308 303 299 296 293 289 287 282 284 288 294 300 300 305 308 310 315 315 315 320 322 323 323 325 327 328 329 330 332
275 275 277 284 290 296 297 297 298 293 282 278 280 286 293 297 299 304 307 309 310 311 311 311 312 311 307 303 302 301 296 291 290 293 294 296 302 304 305 310 314 311 311 316 318 319 320 322 324 326 326 328 329 331
278 277 276 279 282 285 284 282 280 280 282 286 290 294 296 298 299 302 305 306 308 309 310 311 313 313 313 310 305 300 297 294 294 296 296 297 299 303 308 309 308 309 312 315 317 317 319 321 322 323 325 327 328 329
283 283 282 284 284 285 286 286 289 292 293 294 295 296 296 295 298 301 304 306 308 310 312 312 312 311 308 305 302 301 299 298 298 298 300 301 301 302 302 304 308 310 312 313 314 316 318 319 320 322 323 325 326 327